FW6934 Weather Reports


Display with metric or nautical units.
time (UTC)temp
F
wind
direction
speed
MPH
gust
MPH
rain 1hr
in
rain 24hr
in
rain mn
in
humidity
%
barometer
mb
20200710215517 75 61 1.0 8.0 0.00 0.00 0.00 55 1021.4
20200710215107 76 30 4.0 9.0 0.00 0.00 0.00 56 1021.5
20200710214645 75 19 3.0 9.0 0.00 0.00 0.00 60 1021.5
20200710214005 74 350 1.0 5.0 0.00 0.00 0.00 58 1021.4
20200710213601 73 101 0.0 9.0 0.00 0.00 0.00 57 1021.4
20200710213111 74 279 4.0 9.0 0.00 0.00 0.00 57 1021.4
20200710212519 75 308 3.0 8.0 0.00 0.00 0.00 56 1021.5
20200710212100 74 57 4.0 8.0 0.00 0.00 0.00 59 1021.5
20200710211604 74 59 2.0 8.0 0.00 0.00 0.00 59 1021.5
20200710211010 74 82 2.0 8.0 0.00 0.00 0.00 61 1021.6
20200710210601 73 43 2.0 8.0 0.00 0.00 0.00 59 1021.6
20200710210031 72 27 1.0 8.0 0.00 0.00 0.00 63 1021.7
20200710205607 71 40 2.0 8.0 0.00 0.00 0.00 65 1021.7
20200710205048 72 83 2.0 10.0 0.00 0.00 0.00 60 1021.7
20200710204516 74 17 5.0 9.0 0.00 0.00 0.00 59 1021.9
20200710204058 75 28 4.0 8.0 0.00 0.00 0.00 59 1021.9
20200710203545 74 51 4.0 8.0 0.00 0.00 0.00 61 1021.9
20200710203016 73 44 3.0 6.0 0.00 0.00 0.00 61 1021.9
20200710202048 70 78 0.0 3.0 0.00 0.00 0.00 65 1022.0
20200710201524 68 46 1.0 8.0 0.00 0.00 0.00 67 1022.1
20200710201007 69 19 3.0 8.0 0.00 0.00 0.00 67 1022.2
20200710200611 70 22 3.0 9.0 0.00 0.00 0.00 64 1022.2
20200710200028 71 53 3.0 9.0 0.00 0.00 0.00 62 1022.2
20200710195613 71 236 1.0 6.0 0.00 0.00 0.00 62 1022.2
20200710195045 69 71 1.0 8.0 0.00 0.00 0.00 67 1022.2
20200710194504 71 325 3.0 8.0 0.00 0.00 0.00 65 1022.3
20200710194054 70 33 5.0 9.0 0.00 0.00 0.00 62 1022.3
20200710193537 70 322 4.0 9.0 0.00 0.00 0.00 65 1022.3
20200710193209 69 36 2.0 6.0 0.00 0.00 0.00 66 1022.4
20200710192607 70 19 3.0 9.0 0.00 0.00 0.00 67 1022.4
20200710192041 71 309 4.0 9.0 0.00 0.00 0.00 65 1022.5
20200710191622 68 47 1.0 8.0 0.00 0.00 0.00 66 1022.4
20200710191100 68 306 2.0 5.0 0.00 0.00 0.00 66 1022.4
20200710190529 68 302 3.0 7.0 0.00 0.00 0.00 67 1022.5
20200710190225 68 43 1.0 7.0 0.00 0.00 0.00 68 1022.4
20200710185535 67 276 4.0 6.0 0.00 0.00 0.00 68 1022.5
20200710185023 66 290 0.0 4.0 0.00 0.00 0.00 68 1022.5
20200710184701 67 355 1.0 5.0 0.00 0.00 0.00 67 1022.5
20200710184047 66 46 3.0 5.0 0.00 0.00 0.00 70 1022.5
20200710183520 66 28 1.0 4.0 0.00 0.00 0.00 70 1022.5
20200710183126 67 319 2.0 6.0 0.00 0.00 0.00 68 1022.6
20200710182532 67 60 4.0 6.0 0.00 0.00 0.00 71 1022.6
20200710182033 66 28 3.0 8.0 0.00 0.00 0.00 68 1022.5
20200710181615 68 53 3.0 8.0 0.00 0.00 0.00 66 1022.5
20200710181031 67 355 3.0 8.0 0.00 0.00 0.00 66 1022.6
20200710180516 66 251 1.0 6.0 0.00 0.00 0.00 68 1022.6
20200710175523 66 109 2.0 5.0 0.00 0.00 0.00 70 1022.7
20200710174628 64 51 2.0 6.0 0.00 0.00 0.00 71 1022.8
20200710174010 64 40 3.0 6.0 0.00 0.00 0.00 73 1022.7
20200710173113 63 317 1.0 7.0 0.00 0.00 0.00 73 1022.8
20200710172515 63 246 3.0 9.0 0.00 0.00 0.00 73 1022.7
20200710172059 63 289 1.0 9.0 0.00 0.00 0.00 71 1022.8
20200710171520 65 66 2.0 5.0 0.00 0.00 0.00 72 1022.7
20200710171007 65 90 1.0 8.0 0.00 0.00 0.00 71 1022.7
20200710170559 64 24 4.0 8.0 0.00 0.00 0.00 71 1022.7
20200710170023 63 144 1.0 5.0 0.00 0.00 0.00 71 1022.7
20200710165558 64 325 2.0 5.0 0.00 0.00 0.00 73 1022.8
20200710165053 63 10 1.0 5.0 0.00 0.00 0.00 74 1022.7
20200710164701 62 44 3.0 5.0 0.00 0.00 0.00 75 1022.8
20200710164038 62 5 1.0 3.0 0.00 0.00 0.00 74 1022.7
20200710163528 62 52 0.0 2.0 0.00 0.00 0.00 74 1022.8
20200710163114 61 336 0.0 4.0 0.00 0.00 0.00 74 1022.8
20200710162519 61 332 1.0 4.0 0.00 0.00 0.00 75 1022.8
20200710162100 61 360 1.0 3.0 0.00 0.00 0.00 74 1022.8
20200710161535 61 80 1.0 3.0 0.00 0.00 0.00 75 1022.8
20200710161009 61 38 1.0 3.0 0.00 0.00 0.00 75 1022.6
20200710160553 61 30 1.0 4.0 0.00 0.00 0.00 75 1022.7
20200710160038 61 13 2.0 4.0 0.00 0.00 0.00 76 1022.6
20200710155508 60 9 0.0 3.0 0.00 0.00 0.00 75 1022.6
20200710155057 61 86 0.0 3.0 0.00 0.00 0.00 77 1022.7
20200710154517 60 5 1.0 4.0 0.00 0.00 0.00 76 1022.5
20200710154001 60 332 2.0 4.0 0.00 0.00 0.00 77 1022.6
20200710153549 60 15 1.0 3.0 0.00 0.00 0.00 77 1022.6
20200710153030 60 28 1.0 3.0 0.00 0.00 0.00 77 1022.5
20200710152600 59 25 1.0 3.0 0.00 0.00 0.00 77 1022.5
20200710152044 60 43 0.0 2.0 0.00 0.00 0.00 77 1022.5
20200710151512 59 336 0.0 1.0 0.00 0.00 0.00 80 1022.5
20200710151050 59 332 0.0 3.0 0.00 0.00 0.00 78 1022.4
20200710150602 58 332 1.0 3.0 0.00 0.00 0.00 77 1022.4
20200710145540 58 343 0.0 2.0 0.00 0.00 0.00 79 1022.3
20200710145025 58 343 0.0 1.0 0.00 0.00 0.00 79 1022.3
20200710144629 58 343 0.0 1.0 0.00 0.00 0.00 78 1022.3
20200710144038 58 343 0.0 1.0 0.00 0.00 0.00 80 1022.2
20200710143529 58 343 0.0 2.0 0.00 0.00 0.00 80 1022.2
20200710143120 58 343 1.0 2.0 0.00 0.00 0.00 80 1022.2
20200710142528 58 302 1.0 3.0 0.00 0.00 0.00 80 1022.1
20200710142017 57 302 1.0 3.0 0.00 0.00 0.00 80 1022.0
20200710141552 57 266 0.0 2.0 0.00 0.00 0.00 83 1021.9
20200710141027 57 266 0.0 3.0 0.00 0.00 0.00 80 1021.9
20200710140513 57 266 1.0 3.0 0.00 0.00 0.00 81 1021.8
20200710140102 57 280 0.0 3.0 0.00 0.00 0.00 80 1021.8
20200710135532 57 280 0.0 3.0 0.00 0.00 0.00 80 1021.8
20200710135005 57 262 0.0 3.0 0.00 0.00 0.00 82 1021.7
20200710134105 57 261 0.0 0.0 0.00 0.00 0.00 81 1021.7
20200710133552 57 261 0.0 0.0 0.00 0.00 0.00 81 1021.6
20200710133023 56 261 0.0 0.0 0.00 0.00 0.00 82 1021.6
20200710132557 56 261 0.0 0.0 0.00 0.00 0.00 81 1021.6
20200710132038 56 261 0.0 1.0 0.00 0.00 0.00 81 1021.5
20200710131829 56 261 0.0 5.0 0.00 0.00 0.00 82 1021.5
20200710131042 56 264 0.0 5.0 0.00 0.00 0.00 83 1021.5
20200710130528 56 245 0.0 4.0 0.00 0.00 0.00 83 1021.5
20200710130127 56 254 2.0 4.0 0.00 0.00 0.00 83 1021.5
20200710125538 56 245 0.0 2.0 0.00 0.00 0.00 83 1021.4
20200710125021 56 245 1.0 3.0 0.00 0.00 0.00 83 1021.3
20200710124611 56 244 1.0 3.0 0.00 0.00 0.00 83 1021.3
20200710124045 56 252 0.0 3.0 0.00 0.00 0.00 82 1021.3
20200710123526 56 252 0.0 3.0 0.00 0.00 0.00 82 1021.1
20200710123116 56 251 0.0 3.0 0.00 0.00 0.00 82 1021.1
20200710122531 56 251 0.0 4.0 0.00 0.00 0.00 83 1021.1
20200710122018 56 269 1.0 4.0 0.00 0.00 0.00 82 1021.1
20200710121651 56 238 0.0 4.0 0.00 0.00 0.00 82 1021.1
20200710121032 56 244 1.0 5.0 0.00 0.00 0.00 82 1021.1
20200710120517 56 227 1.0 5.0 0.00 0.00 0.00 83 1021.1
20200710120052 56 283 1.0 3.0 0.00 0.00 0.00 82 1021.0
20200710115531 55 253 0.0 3.0 0.00 0.00 0.00 83 1020.9
20200710115011 55 265 1.0 2.0 0.00 0.00 0.00 83 1020.9
20200710114647 55 254 0.0 0.0 0.00 0.00 0.00 83 1020.8
20200710114038 55 254 0.0 3.0 0.00 0.00 0.00 84 1020.7
20200710113512 55 256 1.0 3.0 0.00 0.00 0.00 83 1020.7
20200710113053 56 300 0.0 4.0 0.00 0.00 0.00 82 1020.7
20200710112510 56 300 0.0 5.0 0.00 0.00 0.00 81 1020.6
20200710112059 56 284 2.0 5.0 0.00 0.00 0.00 81 1020.6
20200710111538 56 304 0.0 4.0 0.00 0.00 0.00 81 1020.5
20200710111007 57 299 1.0 4.0 0.00 0.00 0.00 80 1020.5
20200710110600 57 282 0.0 3.0 0.00 0.00 0.00 80 1020.6
20200710110051 57 311 1.0 3.0 0.00 0.00 0.00 81 1020.6
20200710105506 57 336 0.0 4.0 0.00 0.00 0.00 81 1020.5
20200710105056 57 315 3.0 4.0 0.00 0.00 0.00 81 1020.5
20200710104614 57 256 0.0 5.0 0.00 0.00 0.00 81 1020.5
20200710104005 57 290 1.0 5.0 0.00 0.00 0.00 81 1020.4
20200710103555 57 271 2.0 4.0 0.00 0.00 0.00 82 1020.4
20200710103047 57 264 2.0 4.0 0.00 0.00 0.00 81 1020.4
20200710102514 57 321 0.0 3.0 0.00 0.00 0.00 81 1020.3
20200710102011 57 18 0.0 4.0 0.00 0.00 0.00 81 1020.3
20200710101536 57 29 1.0 4.0 0.00 0.00 0.00 81 1020.4
20200710101017 57 199 0.0 1.0 0.00 0.00 0.00 82 1020.3
20200710100041 57 198 0.0 3.0 0.00 0.00 0.00 81 1020.0
20200710095509 57 287 0.0 2.0 0.00 0.00 0.00 83 1020.0
20200710095119 57 271 0.0 0.0 0.00 0.00 0.00 83 1020.1
20200710094547 57 271 0.0 0.0 0.00 0.00 0.00 83 1019.9
20200710094015 57 282 0.0 2.0 0.00 0.00 0.00 83 1020.0
20200710093515 57 292 0.0 2.0 0.00 0.00 0.00 83 1019.9
20200710093059 57 283 0.0 4.0 0.00 0.00 0.00 83 1020.0
20200710092512 57 270 0.0 4.0 0.00 0.00 0.00 83 1019.8
20200710091544 56 222 0.0 2.0 0.00 0.00 0.00 84 1019.8
20200710091006 57 274 0.0 3.0 0.00 0.00 0.00 83 1019.8
20200710090556 57 274 1.0 3.0 0.00 0.00 0.00 83 1019.7
20200710090048 57 217 1.0 4.0 0.00 0.00 0.00 83 1019.8
20200710085513 57 251 1.0 4.0 0.00 0.00 0.00 84 1019.7
20200710084533 57 220 0.0 4.0 0.00 0.00 0.00 84 1019.6
20200710084006 57 294 1.0 4.0 0.00 0.00 0.00 84 1019.6
20200710083557 57 215 0.0 4.0 0.00 0.00 0.00 84 1019.5
20200710083022 57 213 1.0 5.0 0.00 0.00 0.00 84 1019.5
20200710082509 57 230 0.0 3.0 0.00 0.00 0.00 84 1019.4
20200710082109 57 230 1.0 3.0 0.00 0.00 0.00 84 1019.5
20200710081525 57 259 0.0 3.0 0.00 0.00 0.00 85 1019.4
20200710081001 57 256 0.0 3.0 0.00 0.00 0.00 85 1019.4
20200710080607 57 243 0.0 3.0 0.00 0.00 0.00 85 1019.4
20200710080030 57 315 0.0 2.0 0.00 0.00 0.00 85 1019.4
20200710075510 57 315 0.0 2.0 0.00 0.00 0.00 86 1019.4
20200710075056 58 317 0.0 2.0 0.00 0.00 0.00 84 1019.3
20200710074528 58 331 0.0 2.0 0.00 0.00 0.00 84 1019.2
20200710074004 58 336 0.0 2.0 0.00 0.00 0.00 83 1019.2
20200710073611 59 284 0.0 2.0 0.00 0.00 0.00 82 1019.1
20200710073031 59 284 0.0 3.0 0.00 0.00 0.00 81 1019.3
20200710072506 60 263 1.0 5.0 0.00 0.00 0.00 81 1019.2
20200710072051 60 292 2.0 5.0 0.00 0.00 0.00 81 1019.1
20200710071528 60 265 0.0 4.0 0.00 0.00 0.00 82 1019.3
20200710071059 60 284 1.0 4.0 0.00 0.00 0.00 81 1019.2
20200710070544 60 247 0.0 3.0 0.00 0.00 0.00 81 1019.2
20200710065557 60 248 0.0 4.0 0.00 0.00 0.00 81 1019.1
20200710065115 60 227 1.0 3.0 0.00 0.00 0.00 82 1019.0
20200710064704 60 254 0.0 3.0 0.00 0.00 0.00 82 1019.0
20200710064048 60 242 0.0 3.0 0.00 0.00 0.00 82 1019.0
20200710063535 60 246 0.0 3.0 0.00 0.00 0.00 82 1018.9
20200710063016 60 251 1.0 3.0 0.00 0.00 0.00 82 1018.8
20200710062555 61 242 0.0 4.0 0.00 0.00 0.00 82 1018.7
20200710062045 61 241 2.0 5.0 0.00 0.00 0.00 82 1018.7
20200710061553 61 261 0.0 4.0 0.00 0.00 0.00 82 1018.6
20200710061107 61 277 1.0 4.0 0.00 0.00 0.00 82 1018.6
20200710060543 61 224 1.0 4.0 0.00 0.00 0.00 83 1018.7
20200710060005 61 224 1.0 4.0 0.00 0.00 0.00 84 1018.5
20200710055550 61 279 0.0 5.0 0.00 0.00 0.00 84 1018.5
20200710055102 61 247 2.0 5.0 0.00 0.00 0.00 84 1018.5
20200710054052 61 275 1.0 4.0 0.00 0.00 0.00 85 1018.5
20200710053538 61 246 1.0 4.0 0.00 0.00 0.00 85 1018.5
20200710053121 61 36 0.0 3.0 0.00 0.00 0.00 86 1018.6
20200710052550 61 286 1.0 3.0 0.00 0.00 0.00 86 1018.5
20200710052041 61 313 1.0 3.0 0.00 0.00 0.00 86 1018.5
20200710051512 61 313 0.0 0.0 0.00 0.00 0.00 86 1018.5
20200710051110 61 313 0.0 0.0 0.00 0.00 0.00 87 1018.4
20200710050542 62 313 0.0 3.0 0.00 0.00 0.00 86 1018.4
20200710050004 62 314 0.0 3.0 0.00 0.00 0.00 87 1018.4
20200710045553 62 291 0.0 0.0 0.00 0.00 0.00 85 1018.4
20200710045050 62 291 0.0 0.0 0.00 0.00 0.00 85 1018.4
20200710044635 63 291 0.0 0.0 0.00 0.00 0.00 85 1018.2
20200710044044 63 291 0.0 0.0 0.00 0.00 0.00 84 1018.1
20200710043535 64 291 0.0 0.0 0.00 0.00 0.00 83 1018.0
20200710043126 64 291 0.0 0.0 0.00 0.00 0.00 82 1017.8
20200710042547 64 291 0.0 0.0 0.00 0.00 0.00 82 1017.9
20200710042030 64 292 0.0 2.0 0.00 0.00 0.00 81 1017.9
20200710041050 65 272 0.0 3.0 0.00 0.00 0.00 81 1017.7
20200710040540 65 271 0.0 4.0 0.00 0.00 0.00 80 1017.7
20200710035553 65 288 2.0 9.0 0.00 0.00 0.00 78 1017.7
20200710035037 66 259 2.0 9.0 0.00 0.00 0.00 78 1017.6
20200710034550 66 115 2.0 9.0 0.00 0.00 0.00 76 1017.6
20200710034104 67 34 1.0 10.0 0.00 0.00 0.00 75 1017.5
20200710033550 67 325 4.0 10.0 0.00 0.00 0.00 74 1017.3
20200710033005 67 31 0.0 4.0 0.00 0.00 0.00 75 1017.2
20200710032555 67 17 1.0 4.0 0.00 0.00 0.00 73 1017.2
20200710032042 67 28 0.0 5.0 0.00 0.00 0.00 73 1017.0
20200710031624 67 14 1.0 4.0 0.00 0.00 0.00 73 1017.0
20200710031040 67 38 2.0 4.0 0.00 0.00 0.00 73 1016.9
20200710030528 67 22 1.0 3.0 0.00 0.00 0.00 72 1016.8
20200710030206 68 5 0.0 3.0 0.00 0.00 0.00 71 1016.8
20200710025553 68 5 1.0 3.0 0.00 0.00 0.00 70 1016.8
20200710025028 69 348 1.0 5.0 0.00 0.00 0.00 68 1016.9
20200710024619 69 337 2.0 5.0 0.00 0.00 0.00 68 1016.8
20200710024054 69 33 2.0 5.0 0.00 0.00 0.00 68 1016.8
20200710023528 70 19 3.0 6.0 0.00 0.00 0.00 68 1016.8
20200710023151 70 325 2.0 6.0 0.00 0.00 0.00 67 1016.8
20200710022539 70 36 2.0 6.0 0.00 0.00 0.00 65 1016.8
20200710022027 71 329 3.0 8.0 0.00 0.00 0.00 63 1016.7
20200710021655 71 284 2.0 10.0 0.00 0.00 0.00 64 1016.6
20200710021042 71 271 4.0 10.0 0.00 0.00 0.00 62 1016.7
20200710020527 70 5 1.0 3.0 0.00 0.00 0.00 65 1016.6
20200710020242 70 298 1.0 3.0 0.00 0.00 0.00 65 1016.5
20200710015625 71 19 0.0 2.0 0.00 0.00 0.00 61 1016.4
20200710015033 71 227 0.0 2.0 0.00 0.00 0.00 63 1016.4
20200710014635 72 227 0.0 4.0 0.00 0.00 0.00 59 1016.4
20200710014047 72 227 0.0 4.0 0.00 0.00 0.00 58 1016.3
20200710013557 73 276 1.0 6.0 0.00 0.00 0.00 54 1016.3
20200710013203 73 242 2.0 6.0 0.00 0.00 0.00 55 1016.3
20200710012542 73 185 1.0 5.0 0.00 0.00 0.00 53 1016.4
20200710012041 73 179 1.0 3.0 0.00 0.00 0.00 56 1016.4
20200710011811 73 219 0.0 6.0 0.00 0.00 0.00 57 1016.4
20200710011042 73 193 1.0 6.0 0.00 0.00 0.00 57 1016.4
20200710010534 73 11 0.0 8.0 0.00 0.00 0.00 56 1016.4
20200710010114 74 300 1.0 8.0 0.00 0.00 0.00 52 1016.3
20200710005540 75 180 0.0 7.0 0.00 0.00 0.00 50 1016.5
20200710005027 75 119 1.0 7.0 0.00 0.00 0.00 53 1016.4
20200710004648 74 153 1.0 4.0 0.00 0.00 0.00 54 1016.4
20200710004048 72 209 1.0 3.0 0.00 0.00 0.00 59 1016.5
20200710003531 72 288 0.0 4.0 0.00 0.00 0.00 63 1016.5
20200710003110 72 288 0.0 4.0 0.00 0.00 0.00 55 1016.5
20200710002547 73 249 1.0 3.0 0.00 0.00 0.00 58 1016.5
20200710002104 73 227 0.0 4.0 0.00 0.00 0.00 58 1016.5
20200710001514 73 202 1.0 6.0 0.00 0.00 0.00 57 1016.6
20200710001103 74 258 0.0 6.0 0.00 0.00 0.00 56 1016.6
20200710000549 74 196 1.0 5.0 0.00 0.00 0.00 56 1016.6
20200709235558 74 167 1.0 4.0 0.00 0.00 0.00 59 1016.5
20200709235042 74 142 1.0 3.0 0.00 0.00 0.00 58 1016.6
20200709234107 74 229 1.0 4.0 0.00 0.00 0.00 54 1016.6
20200709233543 74 157 1.0 4.0 0.00 0.00 0.00 55 1016.8
20200709233021 73 306 0.0 3.0 0.00 0.00 0.00 59 1016.8
20200709232555 72 336 1.0 3.0 0.00 0.00 0.00 58 1016.8
20200709232041 72 339 1.0 3.0 0.00 0.00 0.00 59 1016.9
20200709231506 72 346 0.0 4.0 0.00 0.00 0.00 62 1016.8
20200709231052 71 331 1.0 4.0 0.00 0.00 0.00 66 1016.7
20200709230540 72 289 1.0 4.0 0.00 0.00 0.00 60 1016.9
20200709230104 72 251 2.0 4.0 0.00 0.00 0.00 59 1016.9
20200709225540 74 103 0.0 3.0 0.00 0.00 0.00 59 1016.9
20200709225029 74 121 1.0 5.0 0.00 0.00 0.00 59 1016.9
20200709224724 73 300 1.0 5.0 0.00 0.00 0.00 62 1016.9
20200709224105 73 186 1.0 6.0 0.00 0.00 0.00 59 1016.8
20200709223530 73 13 1.0 3.0 0.00 0.00 0.00 63 1016.9
20200709223004 72 187 1.0 3.0 0.00 0.00 0.00 61 1016.8
20200709222555 72 55 1.0 3.0 0.00 0.00 0.00 61 1016.8
20200709222040 71 29 0.0 3.0 0.00 0.00 0.00 67 1016.9
20200709221059 71 32 1.0 4.0 0.00 0.00 0.00 64 1016.9
20200709220535 71 360 2.0 4.0 0.00 0.00 0.00 62 1016.9
20200709220108 71 165 1.0 5.0 0.00 0.00 0.00 63 1016.9